Zurück zum Katalog

FENGYUN 1C DEB

AktivSSO
NORAD 33623·DEBRIS·🇨🇳 China

Gestartet May 10, 1999 von Taiyuan Satellite Launch Center

Loading…

Nächste Überflüge (nächste 24 Stunden)

TLE

AktuellSource: Space-Track

Epoche: Sep 13, 2026, 12:58 UTC

1 33623U 99025DDG 26256.54058252  .00007711  00000-0  22010-2 0  9997
2 33623  98.1995   7.3016 0052353 166.7391 193.5191 14.44609382652865

Verfolge FENGYUN 1C DEB in Echtzeit mit AllMySat

Download on the App Store